Content
SEND FEEDBACK

Daily
Averages
Monthly
Summary
United States of America

ROME, GEORGIA


Home > North America > United States > Georgia
Elevation: 644 feet     Latitude: 34 20N     Longitude: 085 09W

WEATHER
 
SELECT A DAY
Number of Records: 215,830;   Date Range: 1/1/95 - 12/17/14
 
SHARE

PRINT THIS DATA

[ ← Previous Day ]
WEATHER ALMANAC - MAY 15, 2014
[ Next Day → ]
[ °C ]   °F
Weather ElementAverageHighLow
Temperature60 °F64.9 °F (1:53 am)50 °F (11:53 pm)
Dewpoint55.9 °F64.9 °F (2:18 am)46 °F (5:53 pm)
Humidity87.6 %100 % (2:18 am)58 % (3:53 pm)
Barometer29.97 in30.10 in (11:53 pm)29.88 in (2:53 am)
Wind Speed6.3 mph10.4 mph (12:53 pm)
Wind Gust18.4 mph (4:53 pm)
Weather ElementAverage
Visibility8.5 mi
Wind DirectionSSW (218.5 °)

Weather ElementTotal
Precipitation0.35 in
Heating Degree Days7.6 (Base 65)
Growing Degree Days7.5 (Base 50)
Averaged from 39 records on May 15, 2014
WEATHER CONDITIONS BREAKOUT
WIND DIRECTION BREAKOUT
WEATHER BY HOUR - MAY 15, 2014
[ °C ]   °F
Local TimeTemperatureDewpointHumidityBarometerVisibilityWind DirectionWind SpeedGust SpeedPrecipitationEventsConditions
1:53 AM64.9 °F64.0 °F97 %29.89 in10.0 miCalm0.00 inScattered Clouds
2:18 AM64.9 °F64.9 °F100 %29.90 in10.0 miCalmMostly Cloudy
2:53 AM64.9 °F64.9 °F100 %29.88 in10.0 miSSE (150°)4.6 mphOvercast
3:05 AM64.9 °F64.9 °F100 %29.90 in10.0 miSE (140°)5.8 mphOvercast
3:20 AM64.9 °F64.9 °F100 %29.90 in10.0 miSSE (150°)6.9 mphOvercast
3:35 AM64.9 °F64.9 °F100 %29.91 in10.0 miSSE (160°)5.8 mphOvercast
3:50 AM64.4 °F64.4 °F100 %29.90 in3.0 miSSW (200°)4.6 mph0.01 inRainLight Rain
3:53 AM64.9 °F64.9 °F100 %29.88 in2.5 miWSW (240°)5.8 mph0.01 inRainLight Rain
4:02 AM64.9 °F64.0 °F97 %29.90 in2.5 miSSW (200°)3.5 mph0.03 inRainLight Rain
4:07 AM64.9 °F64.0 °F97 %29.90 in3.0 miVariable4.6 mph0.03 inRainLight Rain
4:18 AM64.0 °F64.0 °F100 %29.90 in5.0 miSSW (210°)4.6 mph0.04 inRainLight Rain
4:29 AM63.0 °F63.0 °F100 %29.90 in2.5 miWNW (290°)6.9 mph0.05 inRainLight Rain
4:36 AM63.0 °F62.1 °F97 %29.90 in3.0 miWest (280°)6.9 mph0.05 inRainLight Rain
4:53 AM62.1 °F60.1 °F93 %29.89 in6.0 miWSW (250°)6.9 mph0.05 inOvercast
5:42 AM60.1 °F57.9 °F93 %29.93 in10.0 miWest (270°)9.2 mphOvercast
5:53 AM59.0 °F57.9 °F96 %29.91 in10.0 miWest (270°)8.1 mphOvercast
6:01 AM59.0 °F57.2 °F94 %29.94 in10.0 miWest (260°)9.2 mphOvercast
6:51 AM57.2 °F55.4 °F94 %29.95 in10.0 miWest (260°)6.9 mphOvercast
6:53 AM57.0 °F55.9 °F96 %29.94 in10.0 miWest (260°)6.9 mphOvercast
7:53 AM55.9 °F54.0 °F93 %29.97 in5.0 miWest (260°)6.9 mph0.02 inRainLight Rain
8:20 AM55.0 °F53.1 °F93 %29.99 in10.0 miWSW (250°)8.1 mph0.02 inOvercast
8:37 AM55.0 °F53.1 °F93 %29.99 in10.0 miVariable5.8 mph0.02 inRainLight Rain
8:53 AM55.0 °F54.0 °F96 %29.99 in10.0 miVariable4.6 mph0.02 inOvercast
9:53 AM55.9 °F54.0 °F93 %30.00 in10.0 miWNW (290°)4.6 mphOvercast
10:35 AM57.0 °F53.1 °F87 %30.03 in10.0 miNNW (330°)9.2 mphOvercast
10:44 AM57.0 °F52.0 °F83 %30.03 in10.0 miWNW (290°)8.1 mphOvercast
10:53 AM57.0 °F52.0 °F83 %30.02 in10.0 miNW (320°)9.2 mphOvercast
11:53 AM57.0 °F51.1 °F81 %30.03 in10.0 miVariable6.9 mphOvercast
12:53 PM60.1 °F48.9 °F67 %30.04 in10.0 miNW (310°)10.4 mph17.3 mphOvercast
1:53 PM61.0 °F51.1 °F70 %30.03 in10.0 miNorth (350°)8.1 mphMostly Cloudy
3:53 PM63.0 °F48.0 °F58 %30.01 in10.0 miNNW (330°)10.4 mphOvercast
4:53 PM62.1 °F46.9 °F58 %30.01 in10.0 miNW (320°)9.2 mph18.4 mphOvercast
5:53 PM61.0 °F46.0 °F58 %30.02 in10.0 miNW (310°)9.2 mphOvercast
6:53 PM62.1 °F46.9 °F58 %30.02 in10.0 miNW (320°)9.2 mphScattered Clouds
7:53 PM61.0 °F48.0 °F62 %30.02 in10.0 miNNW (330°)4.6 mphClear
8:53 PM55.0 °F48.9 °F80 %30.03 in10.0 miWNW (300°)3.5 mphClear
9:53 PM53.1 °F46.9 °F80 %30.06 in10.0 miWNW (290°)4.6 mphClear
10:53 PM52.0 °F46.0 °F80 %30.09 in10.0 miNNW (330°)5.8 mphClear
11:53 PM50.0 °F46.9 °F89 %30.10 in10.0 miCalmClear
Hourly data recorded from KRMG, located miles away from Rome, Georgia







STORIES FROM OUR PARTNERS